Regional Weather Roundup
Issued by NWS

Home | Current Version | Previous Version | Graphics & Text | Print | Product List | Glossary On
Versions: 1 2 3 4 5 6 7 8 9 10 11 12 13 14 15 16 17 18 19 20 21 22 23 24 25 26 27 28 29 30 31 32 33 34 35 36 37 38 39 40 41 42 43 44 45 46 47 48 49 50
000
ASUS43 KBIS 030720
RWRND

NORTH DAKOTA REGIONAL WEATHER ROUNDUP
NATIONAL WEATHER SERVICE BISMARCK ND
100 AM CST TUE MAR 03 2015

NOTE: "FAIR" INDICATES FEW OR NO CLOUDS BELOW 12,000 FEET WITH NO
SIGNIFICANT WEATHER AND/OR OBSTRUCTIONS TO VISIBILITY.


NDZ001>003-009>011-017-030800-
NORTHWEST NORTH DAKOTA

CITY           SKY/WX    TMP DP  RH WIND       PRES   REMARKS
WILLISTON      CLOUDY    13   5  70 NW22G32   30.00R WCI  -6
MINOT          FLURRIES  14   8  77 NW26      29.88R WCI  -6
MINOT AFB      LGT SNOW  12  10  92 NW32G38   29.86R FOG     WCI -10
$$

NDZ018>021-031>035-040>046-030800-
SOUTHWEST NORTH DAKOTA

CITY           SKY/WX    TMP DP  RH WIND       PRES   REMARKS
BISMARCK       CLOUDY    19  12  74 N25G37    29.83R WCI   1
DICKINSON      CLOUDY    15   7  70 NW24G36   29.85R WCI  -4
GARRISON         N/A     15   9  76 NW28G37   29.85R WCI  -5
HETTINGER ARPT CLOUDY    17   9  70 NW23G33   29.83R WCI  -1
$$

NDZ004>008-012>016-024-026-027-054-030800-
NORTHEAST NORTH DAKOTA

CITY           SKY/WX    TMP DP  RH WIND       PRES   REMARKS
GRAND FORKS    CLOUDY    24  18  77 S8        29.74S WCI  15
GRND FRKS AFB  CLOUDY    24  18  77 SW9       29.73R WCI  15
DEVILS LAKE    MOCLDY    18  12  79 NW20      29.75R WCI   1
$$

NDZ022-023-025-028>030-036>039-047>053-030800-
SOUTHEAST NORTH DAKOTA

CITY           SKY/WX    TMP DP  RH WIND       PRES   REMARKS
FARGO          CLOUDY    28  20  71 S22G29    29.74F WCI  14
JAMESTOWN      CLOUDY    24  18  77 NW17G24   29.74R WCI  11
$$




USA.gov is the U.S. government's official web portal to all federal, state and local government web resources and services.